Location: Bosisio Parini
(45.8000°N, 9.2833°E)
Time: 17:49:26
(UTC+00:00)

Daily predictions for brighter satellites

Satellite Brightness Start Highest point End
(mag) Time Altitude Azimuth Time Altitude Azimuth Time Altitude Azimuth
BREEZE-M R/B 3.5 16:43:56 10° WNW 16:47:10 51° N 16:53:14 10° ENE
ATLAS 5 CENTAUR R/B 4.0 16:45:52 10° WNW 16:48:30 15° NNW 16:51:20 10° NNE
COSMO-SKYMED 1 3.5 16:46:21 10° NE 16:50:04 27° E 16:53:45 10° SSE
H-2A R/B 2.6 16:46:06 10° N 16:50:13 60° WNW 16:54:14 10° SSW
Cosmos 44 3.1 16:45:55 10° SSW 16:50:24 75° ESE 16:55:10 10° NE
H-2A R/B 3.5 16:51:56 10° E 16:55:33 18° ENE 16:59:11 10° NNE
Cosmos 1825 Rocket 3.7 16:53:36 10° N 16:58:04 84° W 17:02:28 10° S
Cosmos 1656 4.1 16:55:34 10° S 17:00:43 41° ESE 17:05:58 10° NE
CZ-4B R/B 3.8 16:56:44 10° S 17:02:18 65° WSW 17:07:48 10° NNW
Cosmos 1939 Rocket 3.2 16:59:10 10° SE 17:02:52 40° ENE 17:06:33 10° N
YAOGAN 1 3.7 17:00:29 10° ESE 17:03:52 23° ENE 17:07:16 10° NNE
USA 307 3.7 16:59:56 10° NW 17:03:58 38° NNE 17:07:24 13° E
Meteor 2-21 Rocket 4.5 16:58:10 10° N 17:04:23 85° E 17:10:30 10° S
SeaSat 1 4.1 17:03:39 11° ENE 17:06:07 16° NE 17:08:58 10° N
Okean O Rocket 2.3 17:01:56 10° S 17:06:14 60° WSW 17:10:33 10° NNW
Cosmos 1331 Rocket 4.3 17:02:58 10° SSW 17:08:06 71° WNW 17:13:16 10° NNE
USA 308 3.6 17:04:51 10° NW 17:08:54 39° NNE 17:12:08 15° E
Cosmos 1408 3.8 17:07:05 10° NNE 17:09:55 21° ENE 17:12:44 10° ESE
Timation 2 Rocket 4.3 17:03:53 10° NNW 17:10:32 85° WSW 17:17:23 10° SSE
USA 215 4.2 17:07:14 10° ENE 17:12:54 33° N 17:18:36 10° WNW
Cosmos 1726 Rocket 3.5 17:08:37 10° S 17:12:57 89° W 17:17:23 10° N
Cosmos 2227 Rocket 2.3 17:08:54 10° NNW 17:14:30 58° ENE 17:20:04 10° SE
Helios 1A Rocket 3.4 17:11:19 10° SE 17:15:08 38° ENE 17:18:57 10° N
Cosmos 1892 3.2 17:12:17 10° N 17:15:55 37° ENE 17:19:33 10° SE
Cosmos 2228 3.6 17:11:55 10° SSW 17:16:06 61° W 17:20:22 10° N
ATLAS 2AS CENTAUR R/B 4.0 17:11:03 10° NNW 17:17:24 27° NNE 17:22:02 15° ENE
Aureole 3 Rocket 3.2 17:13:35 10° S 17:17:31 61° E 17:23:00 10° NNE
Cosmos 2263 Rocket 3.9 17:14:33 10° N 17:17:42 15° NE 17:19:27 13° ENE
Cosmos 1400 Rocket 2.8 17:13:49 10° S 17:17:53 65° E 17:21:57 10° NNE
Cosmos 292 Rocket 4.1 17:15:42 10° SSW 17:20:28 68° WNW 17:25:18 10° NNE
IRS-1C Rocket 4.0 17:16:23 10° SSE 17:21:36 69° ENE 17:26:52 10° N
Cosmos 968 Rocket 3.5 17:18:56 10° NNW 17:24:05 56° ENE 17:29:09 10° SE
Cosmos 1553 Rocket 4.1 17:18:20 10° S 17:24:32 58° E 17:30:39 10° NNE
Cosmos 1300 3.4 17:22:31 10° SSW 17:26:16 57° W 17:30:03 10° N
Atlas Centaur 2 4.5 17:21:08 10° SW 17:27:30 25° S 17:33:48 11° ESE
FALCON 9 DEB 3.5 17:24:26 10° WSW 17:27:36 52° NNW 17:29:34 20° NE
CZ-4 R/B 1.6 17:25:16 10° SE 17:28:56 42° ENE 17:32:35 10° N
Lacrosse 5 3.5 17:25:05 10° NW 17:29:04 23° N 17:32:14 13° NE
Cosmos 1697 Rocket 3.2 17:24:28 10° S 17:29:35 37° ESE 17:34:43 10° NE
FALCON 9 DEB 3.6 17:27:36 10° W 17:30:42 47° NNW 17:32:31 21° NE
Cosmos 2058 3.2 17:29:04 10° N 17:32:59 42° ENE 17:36:54 10° SSE
Meteor 2-1 Rocket 4.5 17:28:53 10° SSE 17:34:01 42° E 17:39:11 10° NNE
Cosmos 1825 3.1 17:31:06 10° NNE 17:34:19 26° ENE 17:34:21 26° ENE
PSLV R/B 3.9 17:30:17 10° NNE 17:34:26 62° ESE 17:38:31 10° S
SAR-Lupe-4 3.7 17:31:07 10° N 17:34:43 76° WNW 17:38:17 10° SSW
Meteor 2-15 4.5 17:30:50 10° S 17:36:48 56° E 17:42:47 10° NNE
CZ-2D R/B 3.1 17:33:11 10° SSE 17:36:59 71° ENE 17:40:47 10° N
Cosmos 44 Rocket 4.3 17:33:43 10° SSE 17:37:35 25° ESE 17:38:24 24° E
SKYMED 2 3.5 17:33:57 10° NNE 17:38:20 85° ESE 17:42:40 10° SSW
ERS-2 3.7 17:35:12 10° N 17:38:35 36° WNW 17:41:56 10° SW
Cosmos 1302 Rocket 4.3 17:34:39 10° SSW 17:39:54 73° WNW 17:45:13 10° NNE
FALCON 9 DEB 4.3 17:37:00 10° NW 17:40:03 29° NNE 17:40:54 25° NE
Okean-O 2.5 17:37:09 10° SSE 17:41:32 67° ENE 17:45:57 10° N
Cosmos 220 Rocket 4.2 17:37:20 10° S 17:41:32 50° ESE 17:45:06 14° NE
SL-4 R/B 2.6 17:38:14 10° WNW 17:41:36 36° NNE 17:42:47 28° NE
Cosmos 1346 Rocket 2.8 17:38:48 10° N 17:42:45 57° ENE 17:46:41 10° SSE
FALCON 9 DEB 3.9 17:41:00 10° W 17:44:07 42° NNW 17:45:25 27° NNE
SL-08 R/B 4.4 17:39:50 10° N 17:46:02 88° ENE 17:52:09 10° S
Cosmos 1340 3.2 17:42:30 10° NNW 17:46:15 60° W 17:49:57 10° S
Cosmos 1486 Rocket 4.0 17:43:49 10° NNW 17:49:11 88° WSW 17:54:30 10° SSE
Cosmos 1315 Rocket 2.9 17:46:32 10° S 17:50:22 50° E 17:54:01 11° NNE
Cosmos 1745 Rocket 3.9 17:44:36 10° N 17:50:55 71° E 17:57:14 10° SSE
Cosmos 1980 Rocket 2.8 17:47:55 10° SSE 17:52:47 31° ESE 17:53:26 30° E
Cosmos 1689 Rocket 2.8 17:50:27 10° N 17:53:17 52° WNW 17:56:05 10° SSW
Cosmos 2297 Rocket 2.7 17:48:35 10° NNW 17:54:11 61° WSW 17:59:44 10° S
USA 305 2.9 17:50:08 10° NW 17:54:26 65° NNE 17:55:45 41° E
FALCON 9 DEB 4.1 17:51:45 10° W 17:54:45 35° NNW 17:55:35 30° NNE
CZ-4B R/B 3.9 17:53:25 10° NNW 17:55:55 21° WNW 17:58:21 10° WSW
In-Cosmos 22 Rocket 4.5 17:50:43 10° NNW 17:56:03 67° W 18:01:28 10° S
CSL-04 Debris 4.2 17:53:49 10° SSE 17:59:08 60° ENE 18:04:32 10° N
Cosmos 1503 Rocket 3.9 17:53:59 10° NNW 17:59:13 67° ENE 18:03:10 18° SSE
USA 306 2.8 17:56:36 10° NW 18:00:54 71° NNE 18:01:57 48° E
Cosmos 1386 Rocket 4.4 17:55:35 10° N 18:02:02 80° E 18:08:21 10° S
Cosmos 2058 Rocket 4.4 18:00:33 10° SSW 18:04:48 42° WNW 18:09:06 10° N
DMSP B5D1-3 4.5 18:00:15 10° NNE 18:05:21 59° E 18:10:26 10° S
CZ-2C R/B 3.2 18:01:58 10° SSE 18:07:46 89° ENE 18:13:25 10° NNW
Cosmos 1354 Rocket 3.9 18:06:08 10° NNW 18:11:24 74° ENE 18:14:14 28° SSE
Cosmos 2360 4.1 18:06:43 10° SSW 18:12:22 63° ESE 18:15:32 26° NE
Cosmos 1455 2.1 18:10:22 10° S 18:14:07 81° W 18:17:16 15° N
CZ-4C R/B 3.8 18:09:33 10° NNW 18:15:21 29° NNE 18:16:59 26° NE
Cosmos 1992 Rocket 4.0 18:12:26 10° SSW 18:17:39 82° WNW 18:22:43 11° NNE
Meteor 2-10 Rocket 3.7 18:14:34 10° SSW 18:19:51 70° WNW 18:24:59 10° N
Cosmos 1709 Rocket 3.9 18:14:12 10° N 18:20:34 68° E 18:26:55 10° SSE
Cosmos 1076 Rocket 3.5 18:17:53 10° NNW 18:22:08 77° W 18:25:01 20° S
Cosmos 2278 3.7 18:18:35 10° S 18:24:08 57° ESE 18:24:51 53° E
COSMO-SKYMED 1 4.4 18:22:22 10° N 18:26:14 32° WNW 18:30:04 10° SW
Meteor 2-3 Rocket 4.4 18:23:01 10° N 18:27:07 36° NE 18:27:07 36° NE
Ariane Rocket 4.2 18:30:46 27° NNE 18:30:46 27° NNE 18:33:28 10° N
Geosat 3.9 18:29:49 44° NNE 18:31:29 86° ESE 18:36:30 10° SSW
Cosmos 2082 4.1 18:28:29 10° NNW 18:34:10 64° WSW 18:38:04 21° S
H-2A R/B 2.2 18:28:55 10° S 18:34:20 77° WSW 18:39:49 10° NNW
Cosmos 883 Rocket 4.3 18:28:49 10° S 18:34:59 87° E 18:41:09 10° N
ATLAS 5 CENTAUR R/B 4.3 18:34:09 10° N 18:35:24 11° N 18:36:16 10° NNE
ARGOS 3.0 18:36:01 44° SSE 18:37:52 87° ENE 18:43:19 10° NNW
YAOGAN 1 3.9 18:35:43 10° SSW 18:39:45 38° W 18:43:49 10° NNW
GEOS 3 Rocket 3.6 18:41:32 68° SSE 18:42:16 87° SW 18:47:43 10° NW
Cosmos 2315 Rocket 3.8 18:36:12 10° S 18:42:24 81° E 18:48:37 10° N
SeaSat 1 2.5 18:43:27 66° N 18:43:27 66° N 18:47:51 10° NNW
USA 307 3.5 18:39:59 10° WNW 18:43:36 55° W 18:43:36 55° W
Cosmos 1812 Rocket 4.4 18:42:59 10° SSW 18:47:16 50° WNW 18:51:32 10° N
NOSS 3-4 (A) 3.8 18:40:38 10° NW 18:47:34 67° NE 18:48:36 60° E
NOSS 3-4 (C) 3.8 18:40:45 10° NW 18:47:40 67° NE 18:48:40 60° E
Cosmos 2369 4.0 18:42:33 10° SW 18:48:14 65° WNW 18:51:18 28° NNE
USA 308 3.7 18:44:55 10° WNW 18:48:20 48° W 18:48:20 48° W
DEBRIS 4.1 18:33:05 10° WSW 18:50:47 84° NNW 18:51:52 63° ENE
USA 215 3.6 18:54:35 48° NE 18:55:04 49° NNE 19:01:19 10° NW
NOSS 3-3 (A) 4.4 18:50:36 10° SW 18:56:24 59° NW 18:59:03 35° NNE
NOSS 3-3 (C) 4.4 18:50:42 10° SW 18:56:30 60° NW 18:59:06 36° NNE
MOS 1 Rocket 4.2 18:53:36 10° N 18:58:06 48° WNW 19:02:52 10° SW
Cosmos 2227 Rocket 4.4 18:53:45 10° NW 18:58:07 23° WSW 19:02:29 10° SSW
Cosmos 2263 Rocket 2.9 18:57:06 10° NNW 19:01:09 45° N 19:01:09 45° N
CZ-4 R/B 4.2 19:01:43 10° SW 19:04:10 16° W 19:06:37 10° NW
ATLAS 2AS CENTAUR R/B 2.7 19:02:13 10° NW 19:09:28 70° NNE 19:09:28 70° NNE
BREEZE-M R/B 4.1 19:05:24 10° WNW 19:10:20 85° SSW 19:10:34 83° SSE
Lacrosse 5 3.5 19:08:37 10° NW 19:11:26 27° NNW 19:11:26 27° NNW
Cosmos 1697 Rocket 4.0 19:08:21 10° WSW 19:13:32 37° NW 19:16:32 22° N
Atlas Centaur 2 4.3 19:09:26 10° WSW 19:16:08 26° S 19:16:24 26° S
Cosmos 1980 Rocket 3.4 19:31:13 10° SW 19:35:17 38° W 19:35:17 38° W
CZ-4C R/B 3.7 19:57:45 10° NW 20:02:11 43° NNW 20:02:11 43° NNW
